Wind_Speed
34 32 30 28 27 25 24 23 22 21 20 19 18 18 18 15 15 16 14 14 14 14 14 15 15 15 16 17 15 15 13 14 12 9 9 14 14 18 16 19 15 13 13 17 17
36 34 32 31 29 27 26 25 23 22 21 21 20 20 20 18 16 17 17 16 16 16 16 17 18 16 16 17 17 15 15 13 16 17 15 20 21 19 17 16 23 21 16 21 18
36 35 33 31 30 28 27 26 24 24 23 23 22 21 21 20 18 18 18 17 17 16 16 15 14 15 16 17 19 21 22 18 21 22 22 25 25 24 20 26 21 24 25 19 22
37 36 34 33 31 30 30 28 27 26 25 25 25 23 21 21 12 10 11 11 13 14 15 17 18 19 19 18 21 22 23 23 24 26 26 30 28 27 25 29 27 34 33 31 26
38 37 36 34 34 33 32 31 30 30 28 27 28 25 23 22 20 19 20 20 20 21 21 21 21 21 21 21 24 25 25 27 27 29 32 34 31 31 32 28 32 34 34 29 26
40 39 38 36 35 34 33 34 32 32 31 30 30 28 27 25 24 21 22 22 21 20 18 19 20 19 21 23 23 26 28 29 29 30 34 36 34 34 36 34 30 31 31 29 26
41 41 39 37 36 35 36 35 35 34 33 33 33 31 31 24 27 23 23 22 22 18 18 18 19 19 23 23 24 25 30 30 33 31 33 33 33 37 26 29 32 26 25 28 26
43 41 40 38 38 36 37 37 36 35 35 35 34 35 37 27 29 25 26 21 21 18 18 19 18 21 24 25 27 31 33 27 19 25 28 31 36 27 25 30 29 28 25 26 24
43 42 41 40 39 37 38 38 38 38 38 37 35 35 38 31 32 29 26 23 22 20 16 17 21 25 32 29 28 22 32 29 28 27 26 29 34 20 21 25 36 36 30 27 27
42 41 40 41 38 39 40 39 40 40 40 39 37 33 31 27 19 19 26 24 21 22 22 23 30 35 35 28 32 29 28 23 20 15 22 30 40 36 33 34 36 40 30 27 30
44 43 40 39 39 40 39 39 40 42 45 39 34 27 27 25 23 26 29 30 31 25 27 33 33 36 34 30 34 30 31 30 29 27 34 39 43 40 35 37 38 35 26 23 27
45 45 41 41 40 40 41 43 41 44 42 42 40 44 40 37 34 25 28 28 32 37 34 36 46 37 28 32 29 29 31 36 33 26 25 33 46 43 42 37 23 20 21 23 25
49 47 41 42 43 45 44 40 43 34 38 48 47 50 44 43 46 44 44 44 43 42 35 40 38 16 16 21 23 30 28 32 32 28 31 37 50 27 10 12 21 19 16 20 21
49 46 45 49 47 48 46 41 38 25 23 41 45 49 50 46 54 51 50 45 46 44 31 35 34 40 29 31 23 24 19 22 23 22 25 16 19 32 18 14 10 10 10 16 20
53 55 54 52 53 52 44 39 33 31 6 17 22 30 32 28 36 34 37 42 46 30 23 23 19 23 28 33 25 26 20 21 19 22 26 21 17 6 6 11 9 12 11 13 14
49 49 45 42 44 42 29 29 24 15 10 12 11 17 22 21 24 23 17 22 22 24 28 29 20 25 15 15 19 16 10 12 11 12 13 19 24 19 7 6 9 13 15 18 19
41 52 47 45 42 34 36 30 26 12 12 12 15 16 19 19 20 19 16 16 12 12 17 18 27 28 22 17 12 16 11 6 8 6 8 5 12 26 15 13 11 10 10 14 14
37 45 46 47 42 37 41 35 11 23 19 10 17 20 15 21 18 20 17 15 20 15 6 8 7 13 13 16 13 20 22 10 6 10 10 4 13 10 16 18 12 14 16 18 19
42 45 40 42 43 42 34 35 26 18 25 17 16 16 16 17 9 15 17 14 13 18 11 7 7 8 5 6 17 11 26 23 22 24 17 22 26 28 29 30 31 23 16 16 18
42 43 42 36 41 40 38 39 37 32 18 24 22 14 18 20 19 16 14 9 14 15 14 8 10 11 11 13 16 17 7 12 18 5 10 17 23 23 22 13 8 17 20 18 19
44 31 34 32 36 36 44 45 46 33 32 27 27 19 18 18 19 18 11 12 15 14 13 11 11 11 10 13 16 18 26 16 15 24 12 17 23 18 14 14 18 18 20 21 20
38 36 40 39 46 46 43 45 41 44 39 35 32 24 21 19 18 20 20 18 17 15 20 19 11 21 27 22 21 23 27 29 28 21 22 34 39 28 29 23 21 22 21 22 22
39 37 33 38 44 41 46 41 39 38 39 41 42 35 30 26 20 24 20 27 25 23 14 20 15 19 20 22 22 28 30 33 35 39 43 26 38 31 27 30 30 28 31 27 27
37 41 45 41 37 40 42 42 45 44 43 42 43 41 34 39 38 27 23 25 31 32 31 28 25 25 26 22 11 15 19 26 32 36 40 42 47 47 35 33 33 31 32 31 32
43 40 46 35 52 43 44 45 43 42 44 43 40 36 40 40 37 32 32 27 31 33 33 36 31 33 37 39 38 38 35 36 35 40 39 48 43 48 36 32 30 26 28 31 34
48 45 40 46 41 57 50 45 39 36 39 39 39 36 41 44 40 31 40 37 33 28 35 32 31 38 41 40 36 37 43 45 40 41 38 37 53 46 30 37 35 34 31 35 32
39 33 33 30 46 38 48 36 44 35 31 36 32 32 25 25 22 21 20 21 19 19 23 22 25 22 22 27 30 30 47 45 43 44 43 41 51 45 34 37 45 45 42 44 42
Wind_Direction
226 227 230 233 236 240 243 247 250 253 258 260 261 263 261 259 262 265 263 262 264 267 269 271 271 273 272 270 262 257 250 254 255 263 258 276 287 302 310 303 309 315 293 265 264
228 229 231 233 237 240 245 249 253 257 259 259 258 263 267 268 267 266 268 266 267 267 269 271 273 273 272 268 264 250 247 254 250 265 267 277 283 289 300 293 306 312 302 286 264
229 231 233 236 238 242 246 251 252 255 257 261 262 264 269 273 273 271 266 265 266 265 266 266 271 281 278 268 262 257 255 253 266 267 273 274 279 281 290 289 303 302 297 284 275
229 231 233 237 240 242 246 248 253 255 256 261 264 265 265 271 272 252 252 254 260 263 265 266 271 273 273 273 271 266 265 263 265 270 271 270 274 281 282 289 296 295 294 290 276
230 231 233 236 239 243 246 249 251 256 257 258 262 263 265 262 261 264 267 267 267 270 271 276 275 271 270 267 269 272 269 269 268 272 276 280 281 284 282 289 290 296 297 292 277
230 233 235 237 241 245 248 251 252 256 258 259 260 262 262 262 267 263 261 264 264 265 269 268 269 271 270 272 271 269 275 272 272 272 276 282 285 284 292 292 290 300 295 285 274
231 233 235 237 240 245 249 251 256 256 260 263 264 264 262 264 264 265 260 258 258 256 256 260 268 272 275 279 278 281 279 277 273 275 276 281 280 288 289 283 297 303 293 283 272
234 235 236 238 242 244 249 253 255 259 260 262 265 269 268 263 265 259 259 253 250 250 253 254 264 269 273 277 286 286 283 276 274 276 281 280 277 276 274 288 288 296 287 279 274
234 235 237 239 242 245 249 253 255 256 260 261 265 268 276 271 262 256 252 244 246 246 242 258 266 268 271 272 275 269 272 272 274 281 276 273 281 276 282 284 284 292 287 269 267
234 236 238 240 242 245 248 251 256 257 258 262 264 268 263 261 261 253 239 237 230 234 244 257 273 272 272 252 252 269 265 272 275 274 272 278 278 283 284 282 286 291 287 271 257
233 236 237 240 242 245 249 251 253 256 257 260 258 256 259 256 252 230 234 235 242 234 264 271 268 265 271 255 260 270 271 271 273 280 288 285 284 285 283 280 284 287 280 267 255
232 235 237 240 242 246 246 249 253 256 267 261 260 258 257 258 251 231 217 223 242 263 269 264 268 275 259 259 255 258 265 271 278 284 282 291 286 286 283 283 284 278 262 254 251
233 234 236 239 239 241 247 249 253 256 263 265 260 259 257 253 253 248 248 253 258 261 254 257 259 265 255 255 253 250 257 271 275 281 282 298 293 294 276 275 292 276 259 250 245
232 234 231 234 237 243 245 245 250 247 261 264 263 262 258 255 259 256 254 252 254 256 246 256 262 248 250 254 246 253 259 267 278 285 282 295 290 289 290 273 273 282 252 243 237
232 237 234 229 244 243 249 244 237 249 245 256 240 242 247 244 242 255 250 242 242 234 235 238 255 256 245 246 243 258 253 262 270 277 286 269 261 289 303 279 257 262 252 247 245
228 224 216 223 229 234 233 223 190 196 236 227 220 211 217 217 219 228 218 216 221 223 236 242 249 252 246 242 235 237 237 246 256 269 266 263 232 278 279 208 224 247 255 258 262
220 224 223 216 227 217 195 191 193 194 218 221 212 206 201 201 199 201 202 197 192 190 226 249 249 248 242 241 235 209 206 229 235 218 252 231 237 244 275 267 266 258 261 267 262
214 223 214 218 210 204 195 192 200 218 201 202 194 197 194 193 206 211 210 209 217 212 192 227 234 205 235 235 222 221 212 210 250 240 280 191 245 268 252 255 259 266 268 262 266
213 207 189 193 204 196 196 205 212 220 204 198 172 191 198 195 175 198 213 221 225 224 213 215 238 207 264 236 201 225 217 229 261 274 276 258 264 274 277 273 272 272 269 258 256
191 193 202 207 216 216 218 212 219 214 199 201 211 205 201 194 198 197 205 226 219 227 222 242 266 247 239 229 218 220 222 202 219 239 239 258 267 264 277 274 292 266 270 260 253
202 200 208 215 196 208 208 221 221 217 216 200 219 227 220 201 195 194 206 223 239 250 240 241 242 251 247 224 232 217 226 227 231 232 257 271 269 277 273 265 272 268 260 251 253
200 213 213 212 212 214 210 213 226 221 217 218 219 222 230 224 212 218 232 229 239 231 230 232 247 255 253 254 250 242 244 237 235 238 238 251 263 263 284 280 280 280 262 249 241
212 220 215 217 217 214 220 221 227 235 228 233 238 237 237 229 230 229 228 230 231 235 229 233 236 258 260 254 247 241 246 245 248 251 253 252 260 276 262 269 271 266 265 251 236
217 222 222 223 223 233 232 233 228 239 237 236 236 240 240 238 239 241 232 234 238 237 236 234 233 235 248 255 250 245 245 241 243 250 254 256 263 268 262 269 268 268 257 234 233
214 217 222 224 229 226 240 232 233 231 230 239 237 235 240 241 246 236 240 239 241 235 234 239 244 245 255 262 262 259 255 253 251 253 256 264 265 261 264 263 268 264 249 232 227
215 215 222 225 227 231 236 235 236 233 240 236 242 243 236 237 237 236 240 234 230 234 227 230 242 251 256 257 256 253 249 257 257 255 255 255 258 261 260 242 245 245 244 237 229
217 212 216 224 232 225 228 225 227 243 231 225 221 222 225 225 231 238 235 231 227 232 237 241 244 258 262 258 266 256 256 260 258 255 253 247 258 260 258 259 260 256 237 223 227
Height
3131 3134 3138 3141 3143 3146 3148 3150 3152 3154 3156 3157 3158 3159 3161 3162 3162 3163 3163 3165 3165 3165 3165 3165 3165 3165 3165 3165 3165 3166 3167 3166 3167 3166 3164 3162 3161 3161 3161 3158 3157 3159 3158 3157 3156
3125 3129 3132 3135 3138 3141 3143 3145 3148 3150 3152 3153 3154 3155 3156 3158 3159 3159 3161 3160 3161 3161 3161 3161 3160 3161 3161 3161 3161 3162 3162 3163 3160 3160 3160 3159 3158 3158 3159 3155 3153 3153 3153 3152 3152
3120 3123 3127 3130 3133 3136 3138 3141 3142 3145 3146 3148 3150 3151 3152 3154 3156 3155 3155 3156 3157 3157 3157 3158 3157 3157 3157 3157 3157 3156 3157 3157 3156 3156 3155 3154 3153 3152 3153 3151 3150 3148 3147 3147 3147
3113 3117 3121 3124 3128 3130 3132 3134 3137 3139 3140 3143 3145 3146 3147 3151 3154 3151 3151 3152 3153 3153 3154 3154 3155 3154 3154 3154 3152 3153 3152 3152 3152 3149 3149 3148 3148 3146 3147 3146 3146 3142 3140 3140 3140
3106 3110 3114 3118 3121 3124 3127 3128 3130 3133 3134 3136 3139 3140 3143 3145 3147 3147 3148 3148 3148 3149 3150 3150 3151 3150 3150 3148 3148 3147 3149 3147 3146 3145 3143 3140 3142 3139 3140 3142 3139 3136 3133 3132 3132
3099 3104 3108 3111 3115 3119 3121 3123 3124 3127 3128 3130 3132 3133 3137 3140 3140 3142 3142 3143 3143 3143 3144 3145 3145 3146 3144 3144 3144 3142 3142 3141 3141 3141 3137 3134 3134 3133 3133 3131 3131 3130 3126 3125 3125
3091 3096 3100 3104 3108 3112 3115 3115 3118 3120 3122 3123 3126 3127 3128 3136 3133 3136 3136 3137 3138 3138 3139 3139 3140 3141 3138 3139 3138 3138 3135 3135 3134 3134 3131 3131 3125 3125 3125 3123 3123 3122 3121 3118 3118
3085 3089 3093 3097 3102 3105 3107 3109 3111 3113 3115 3117 3120 3120 3118 3127 3127 3129 3130 3132 3133 3133 3134 3134 3135 3135 3135 3135 3135 3133 3130 3128 3129 3127 3126 3126 3117 3127 3120 3116 3115 3116 3115 3112 3113
3076 3081 3086 3090 3094 3097 3099 3102 3104 3106 3108 3110 3113 3116 3112 3118 3119 3122 3122 3125 3127 3129 3129 3131 3131 3130 3127 3131 3131 3128 3123 3127 3127 3121 3122 3117 3110 3117 3111 3110 3106 3107 3107 3106 3106
3068 3073 3078 3083 3086 3090 3092 3095 3097 3098 3100 3104 3105 3112 3110 3112 3113 3114 3116 3119 3121 3123 3124 3125 3125 3122 3122 3124 3119 3123 3119 3120 3118 3120 3114 3111 3103 3108 3107 3103 3097 3096 3097 3097 3098
3059 3065 3070 3075 3079 3081 3087 3089 3091 3091 3091 3098 3099 3100 3100 3104 3108 3108 3110 3112 3114 3116 3118 3117 3117 3112 3116 3116 3116 3118 3116 3114 3114 3114 3106 3102 3094 3097 3096 3091 3088 3087 3087 3088 3089
3050 3057 3061 3067 3070 3074 3076 3077 3083 3083 3083 3086 3088 3088 3092 3096 3100 3102 3103 3105 3106 3109 3109 3108 3101 3109 3109 3106 3109 3110 3108 3107 3106 3107 3101 3094 3081 3084 3082 3079 3078 3078 3078 3081 3082
3041 3047 3051 3056 3060 3063 3066 3074 3074 3081 3078 3072 3076 3075 3084 3086 3085 3091 3094 3097 3098 3100 3102 3097 3101 3098 3100 3098 3100 3103 3102 3105 3103 3101 3098 3091 3068 3072 3071 3072 3072 3071 3071 3072 3076
3028 3036 3040 3047 3049 3053 3057 3066 3070 3076 3076 3061 3059 3065 3066 3075 3071 3075 3079 3089 3088 3086 3093 3088 3089 3090 3093 3092 3098 3095 3099 3098 3097 3097 3092 3094 3068 3068 3067 3068 3068 3066 3065 3066 3069
3018 3025 3029 3032 3040 3044 3054 3060 3063 3071 3069 3056 3049 3049 3053 3061 3058 3059 3065 3071 3072 3079 3083 3080 3080 3082 3082 3084 3093 3090 3095 3094 3094 3092 3088 3088 3086 3062 3061 3063 3064 3062 3062 3063 3065
3008 3014 3015 3021 3026 3037 3047 3051 3056 3061 3053 3046 3042 3043 3046 3050 3053 3054 3058 3061 3066 3072 3073 3073 3077 3075 3078 3081 3084 3087 3088 3089 3089 3089 3078 3073 3078 3054 3057 3057 3060 3058 3058 3059 3060
3000 3006 3011 3010 3017 3029 3036 3041 3045 3041 3040 3037 3037 3040 3043 3045 3049 3051 3053 3057 3061 3065 3065 3068 3067 3071 3073 3078 3078 3081 3086 3085 3082 3082 3068 3066 3067 3054 3056 3057 3056 3056 3055 3056 3057
2991 2998 3001 3008 3014 3019 3023 3027 3028 3024 3029 3029 3034 3038 3041 3041 3046 3049 3051 3054 3056 3060 3063 3064 3065 3064 3067 3069 3073 3074 3079 3078 3073 3065 3060 3063 3054 3047 3046 3049 3051 3052 3053 3053 3053
2984 2988 2993 2999 3006 3009 3012 3012 3012 3019 3026 3027 3032 3035 3037 3038 3043 3046 3047 3050 3053 3056 3061 3060 3061 3060 3061 3064 3069 3070 3071 3074 3073 3069 3067 3056 3046 3047 3041 3043 3044 3046 3047 3048 3049
2971 2976 2985 2992 2998 3001 3002 3001 3006 3013 3018 3022 3027 3032 3032 3033 3038 3042 3044 3043 3047 3050 3055 3054 3056 3057 3060 3059 3061 3063 3066 3070 3071 3066 3061 3044 3043 3037 3037 3040 3040 3041 3042 3042 3043
2966 2973 2980 2986 2990 2991 2987 2992 2999 3006 3012 3017 3022 3027 3029 3031 3033 3035 3039 3039 3041 3045 3049 3050 3051 3054 3054 3055 3057 3058 3058 3059 3061 3056 3051 3043 3034 3033 3035 3036 3036 3036 3037 3038 3039
2960 2964 2973 2978 2980 2977 2978 2984 2991 2997 3004 3008 3013 3018 3023 3027 3028 3030 3032 3035 3035 3039 3042 3045 3044 3043 3045 3050 3051 3050 3050 3051 3050 3046 3046 3041 3026 3033 3033 3033 3033 3034 3033 3034 3034
2953 2957 2964 2968 2965 2969 2975 2981 2987 2991 2995 3000 3005 3011 3016 3020 3022 3023 3025 3026 3029 3031 3033 3037 3037 3036 3035 3040 3039 3039 3040 3042 3041 3040 3033 3033 3019 3033 3027 3027 3027 3028 3028 3029 3029
2954 2956 2960 2962 2959 2963 2970 2975 2979 2983 2988 2991 2996 3002 3009 3010 3011 3012 3016 3018 3019 3024 3026 3029 3029 3027 3023 3026 3030 3031 3031 3033 3032 3030 3022 3022 3022 3018 3022 3021 3021 3021 3022 3022 3022
2946 2948 2950 2952 2956 2959 2964 2969 2971 2974 2980 2983 2988 2992 2996 3001 3003 3001 3007 3008 3010 3012 3015 3020 3018 3020 3017 3018 3023 3023 3024 3019 3021 3020 3020 3012 3015 3009 3017 3014 3013 3015 3016 3016 3015
2939 2943 2943 2945 2947 2953 2957 2960 2964 2967 2974 2975 2980 2984 2988 2992 2993 2992 2995 2997 3001 3000 3004 3005 3007 3011 3009 3011 3012 3011 3008 3005 3009 3008 3006 3006 3001 3005 3005 3003 3004 3005 3009 3009 3009
2931 2930 2933 2934 2938 2948 2950 2953 2954 2960 2966 2968 2974 2978 2981 2982 2983 2984 2988 2992 2993 2995 2994 2999 3000 3002 2997 3004 3004 2998 2991 2993 2994 2996 2995 2992 2988 2996 2995 2994 2995 2995 2995 2993 2991